星链-2424 (STARLINK-2424 )

导读

STARLINK-2424是美国太空探索技术公司SpaceX星链(Starlink)卫星互联网项目中的一颗卫星,于2021年3月11日发射入轨,星链计划通过构建低轨卫星星座,为全球提供覆盖广泛的高速互联网接入服务,该卫星是星链组网建设过程中的重要组成部分。

Basic Information
目录编号:
47834
目录名称:
STARLINK-2424
国际标识:
2021-018AZ
轨道中心:
EARTH
卫星名称:
星链-2424
卫星全名:
星链-2424 (STARLINK-2424 )
卫星状态:
在轨 (已飞行2003 天)
发射日期:
2021-03-11 UTC
国别 :
美国 (US)
星等 :
--
Orbit Information
数据来源 国际轨道数据 AOE轨道数据
星历时间 2026-09-04T10:06:21+0800
6小时前
查看轨道信息
2026-09-03T22:00:00+0800
18小时前
查看轨道信息
半长轴 6848.855km 6848.886km
偏心率 0.0001138 0.0002481
轨道倾角 53.158° 53.159°
近地点辐角 83.550° 38.567°
升交点赤经 134.847° 137.203°
平近点角 276.563° 58.591°
近地点 469.938km 469.049km
远地点 471.498km 472.449km
周期 94.013分钟 94.013分钟
每日圈数 15.317076 15.316971
Detailed Information
固有亮度:
5
最大亮度:
2.5
卫星平台:
Starlink V1.0
覆盖范围:
全球
运营商:
太空探索技术公司
运营商所在国:
美国
制造商(研发单位):
太空探索技术公司
制造商所在国:
美国
使用方式:
暂无
Satellite Introduction
星链(Starlink)计划是由太空探索技术公司(SpaceX)提出的一个巨型低轨卫星互联网星座项目,计划在2019年至2024年间在太空搭建由约1.2万颗卫星组成的“星链”网络,其中1584颗将部署在地球上空550千米处的近地轨道,并从2020年开始工作。该卫星仍在工作。
2D Orbit Map
3D Orbit Map
Orbit Altitude Analysis Chart
Orbit Inclination Analysis Chart
Orbit Comprehensive Analysis Chart
View Comprehensive Chart